Flag for India Weather past 2 weeks in Chhapra, Bihar, India

Now
86 °F

Broken clouds.


Feels Like: 102 °F
Forecast: 85 / 98 °F
Wind: 5 mph from Southeast

Location: Patna Airport

Current Time: Jul 26, 2014 at 10:42:04 AM

Latest Report: Jul 26, 2014 at 8:20 AM


Visibility: 2 mi

Pressure: 29.65 "Hg

Humidity: 84%

Dew point: 81 °F

Location of ChhapraLocation

Historic Weather in Chhapra — Graph

°F

Chhapra temperature yesterday

Maximum temperature yesterday: 90 °F (at 9:20 AM)
Minimum temperature yesterday: 79 °F (at 5:20 AM)
Average temperature yesterday: 86 °F

Past Weeks' High & Low Weather Summary

 TemperatureHumidityPressure
High99 °F (Jul 12, 1:20 PM)94% (Jul 16, 6:20 AM)29.65 "Hg (Jul 16, 6:20 AM)
Low79 °F (Jul 25, 5:20 AM)56% (Jul 12, 12:20 PM)29.30 "Hg (Jul 21, 4:20 PM)
Average88 °F76%29.46 "Hg
* Reported Jul 11 8:20 AM — Jul 26 8:20 AM, Chhapra, Weather by CustomWeather, © 2014

Note: Actual official high and low records may vary slightly from our data, if they occured in-between our weather recording intervals... More about our weather records

Advertising

Chhapra weather history for previous 24 hours

 ConditionsComfort  
Time TempWeatherWind HumidityBarometerVisibility
8:20 AM
Jul 26
86 °FBroken clouds.5 mph84%29.65 "Hg1 mi
7:20 AM84 °FBroken clouds.6 mph89%29.62 "Hg1 mi
6:20 AM82 °FPartly sunny.3 mph89%29.62 "Hg1 mi
5:20 AM81 °FPassing clouds.2 mph94%29.59 "Hg1 mi
11:20 PM
Jul 25
84 °FPassing clouds.3 mph89%29.62 "Hg2 mi
10:20 PM84 °FPartly cloudy.3 mph89%29.59 "Hg2 mi
9:20 PM84 °FPassing clouds.3 mph89%29.59 "Hg2 mi
8:20 PM86 °FPassing clouds.5 mph84%29.56 "Hg2 mi
7:20 PM88 °FPassing clouds.5 mph75%29.53 "Hg3 mi
6:20 PM88 °FScattered clouds.5 mph75%29.53 "Hg3 mi
5:20 PM88 °FScattered clouds.8 mph79%29.50 "Hg3 mi
3:20 PM90 °FScattered clouds.5 mph71%29.50 "Hg3 mi
1:20 PM90 °FScattered clouds.3 mph71%29.56 "Hg3 mi
12:20 PM90 °FScattered clouds.2 mph75%29.59 "Hg3 mi
11:20 AM88 °FScattered clouds.5 mph66%29.59 "Hg3 mi
10:20 AM88 °FScattered clouds.2 mph70%29.62 "Hg3 mi
Weather by CustomWeather, © 2014

See weather overviewHow to use our weather pages